Flag for Germany Weather past 2 weeks in Lehrte, Lower Saxony, Germany

Now
42 °F

Light rain. Overcast.


Feels Like: 37 °F
Forecast: 35 / 58 °F
Wind: 8 mph from West

Location: Hannover

Current Time: Apr 28, 2015 at 7:04:48 PM

Latest Report: Apr 28, 2015 at 6:00 PM


Visibility: 9 mi

Pressure: 30.04 "Hg

Humidity: 89%

Dew point: 39 °F

Location of LehrteLocation

Historic Weather in Lehrte — Graph

°F

Lehrte temperature yesterday

Maximum temperature yesterday: 52 °F (at 12:00 AM)
Minimum temperature yesterday: 45 °F (at 12:00 PM)
Average temperature yesterday: 48 °F

Past Weeks' High & Low Weather Summary

 TemperatureHumidityPressure
High72 °F (Apr 15, 4:00 PM)100% (Apr 23, 6:00 AM)30.43 "Hg (Apr 23, 6:00 AM)
Low31 °F (Apr 28, 6:00 AM)33% (Apr 20, 4:00 PM)29.63 "Hg (Apr 27, 6:00 AM)
Average50 °F70%30.08 "Hg
* Reported Apr 13 6:00 PM — Apr 28 6:00 PM, Lehrte, Weather by CustomWeather, © 2015

Note: Actual official high and low records may vary slightly from our data, if they occured in-between our weather recording intervals... More about our weather records

Advertising

Lehrte weather history for previous 24 hours

 ConditionsComfort  
Time TempWeatherWind HumidityBarometerVisibility
6:00 PM
Tue, Apr 28
42 °FLight rain. Overcast.8 mph89%30.04 "Hg9 mi
4:00 PM54 °FScattered clouds.5 mph38%29.97 "Hg25 mi
3:00 PM52 °FPassing clouds.5 mph36%29.97 "Hg16 mi
2:00 PM51 °FPassing clouds.6 mph46%29.96 "Hg16 mi
1:00 PM49 °FScattered clouds.6 mph51%29.96 "Hg16 mi
12:00 PM47 °FScattered clouds.5 mph54%29.95 "Hg16 mi
11:00 AM45 °FScattered clouds.5 mph55%29.94 "Hg16 mi
10:00 AM43 °FScattered clouds.2 mph62%29.93 "Hg16 mi
9:00 AM40 °FScattered clouds.3 mph74%29.93 "Hg16 mi
8:00 AM35 °FScattered clouds.3 mph86%29.91 "Hg16 mi
7:00 AM31 °FScattered clouds.2 mph92%29.89 "Hg19 mi
6:00 AM31 °FScattered clouds.2 mph93%29.88 "Hg19 mi
4:00 AM33 °FPassing clouds.3 mph88%29.85 "Hg25 mi
3:00 AM35 °FPassing clouds.3 mph87%29.85 "Hg25 mi
2:00 AM37 °FPassing clouds.3 mph80%29.85 "Hg25 mi
1:00 AM41 °FOvercast.3 mph70%29.85 "Hg25 mi
12:00 AM42 °FOvercast.5 mph70%29.83 "Hg25 mi
10:00 PM
Mon, Apr 27
46 °FOvercast.6 mph68%29.81 "Hg25 mi
9:00 PM46 °FOvercast.3 mph60%29.79 "Hg25 mi
8:00 PM49 °FOvercast.5 mph62%29.78 "Hg25 mi
7:00 PM50 °FOvercast.3 mph61%29.76 "Hg12 mi
Weather by CustomWeather, © 2015

See weather overviewHow to use our weather pages